Powrót do katalogu

CZ-4 DEB

AktywnySSO
NORAD 35319·DEBRIS·🇨🇳 China

Wystrzelony Oct 14, 1999 z Taiyuan Satellite Launch Center

Loading…

Następne Przeloty (najbliższe 24 godziny)

TLE

ŚwieżeSource: Space-Track

Epoka: Sep 11, 2026, 00:57 UTC

1 35319U 99057RX  26254.04008164  .00000539  00000-0  25679-3 0  9992
2 35319  98.6574 333.4707 0190394  98.7067  23.2719 14.13984657277134

Śledź CZ-4 DEB w czasie rzeczywistym z AllMySat

Download on the App Store